TimeEDT,TemperatureF,Dew PointF,Humidity,Sea Level PressureIn,VisibilityMPH,Wind Direction,Wind SpeedMPH,Gust SpeedMPH,PrecipitationIn,Events,Conditions,WindDirDegrees,DateUTC
12:56 AM,62.1,57.9,86,30.21,9.0,NNE,17.3,23.0,N/A,,Scattered Clouds,30,2013-05-03 04:56:00
1:33 AM,60.8,57.2,88,30.18,9.0,NNE,13.8,20.7,N/A,,Mostly Cloudy,30,2013-05-03 05:33:00
1:56 AM,61.0,59.0,93,30.18,9.0,NNE,15.0,21.9,N/A,,Overcast,20,2013-05-03 05:56:00
2:48 AM,60.8,59.0,94,30.15,9.0,NNE,16.1,-,N/A,,Scattered Clouds,30,2013-05-03 06:48:00
2:56 AM,62.1,59.0,90,30.17,9.0,NNE,15.0,21.9,N/A,,Scattered Clouds,30,2013-05-03 06:56:00
3:16 AM,60.8,59.0,94,30.15,9.0,NNE,12.7,21.9,N/A,,Mostly Cloudy,30,2013-05-03 07:16:00
3:48 AM,60.8,59.0,94,30.15,9.0,NNE,13.8,-,N/A,,Scattered Clouds,30,2013-05-03 07:48:00
3:56 AM,61.0,59.0,93,30.17,9.0,NNE,13.8,-,N/A,,Partly Cloudy,30,2013-05-03 07:56:00
4:56 AM,61.0,59.0,93,30.17,9.0,NNE,12.7,-,N/A,,Scattered Clouds,30,2013-05-03 08:56:00
5:56 AM,62.1,59.0,90,30.16,9.0,NNE,15.0,21.9,N/A,,Clear,30,2013-05-03 09:56:00
6:32 AM,62.6,59.0,88,30.16,8.0,NNE,16.1,23.0,N/A,,Scattered Clouds,30,2013-05-03 10:32:00
6:56 AM,62.1,59.0,90,30.18,8.0,NNE,13.8,23.0,N/A,,Scattered Clouds,30,2013-05-03 10:56:00
7:56 AM,64.0,57.9,80,30.19,9.0,NE,20.7,32.2,N/A,,Clear,40,2013-05-03 11:56:00
8:56 AM,64.9,57.9,78,30.20,10.0,ENE,20.7,27.6,N/A,,Partly Cloudy,60,2013-05-03 12:56:00
9:56 AM,66.0,57.9,75,30.22,10.0,NE,25.3,33.4,N/A,,Overcast,50,2013-05-03 13:56:00
10:56 AM,66.0,57.0,73,30.23,10.0,NE,23.0,31.1,N/A,,Scattered Clouds,50,2013-05-03 14:56:00
11:56 AM,66.0,55.0,68,30.24,10.0,ENE,24.2,35.7,N/A,,Mostly Cloudy,60,2013-05-03 15:56:00
12:56 PM,64.9,54.0,68,30.23,10.0,NE,23.0,33.4,N/A,,Mostly Cloudy,50,2013-05-03 16:56:00
1:56 PM,64.9,53.1,65,30.22,10.0,ENE,20.7,32.2,N/A,,Clear,60,2013-05-03 17:56:00
2:56 PM,63.0,52.0,67,30.20,10.0,NE,25.3,35.7,N/A,,Clear,50,2013-05-03 18:56:00
3:56 PM,63.0,48.9,60,30.19,10.0,ENE,25.3,35.7,N/A,,Partly Cloudy,60,2013-05-03 19:56:00
4:56 PM,61.0,48.9,64,30.20,10.0,NE,25.3,34.5,N/A,,Mostly Cloudy,50,2013-05-03 20:56:00
5:56 PM,61.0,48.0,62,30.19,10.0,NE,25.3,33.4,N/A,,Clear,50,2013-05-03 21:56:00
6:56 PM,61.0,50.0,67,30.19,10.0,NE,24.2,33.4,N/A,,Partly Cloudy,40,2013-05-03 22:56:00
7:56 PM,60.1,48.9,67,30.19,10.0,NE,23.0,33.4,N/A,,Mostly Cloudy,40,2013-05-03 23:56:00
8:56 PM,60.1,51.1,72,30.20,10.0,NE,21.9,31.1,N/A,,Overcast,40,2013-05-04 00:56:00
9:23 PM,60.8,51.8,72,30.18,10.0,NE,26.5,32.2,N/A,,Overcast,40,2013-05-04 01:23:00
9:56 PM,59.0,52.0,78,30.19,10.0,NNE,23.0,32.2,N/A,,Mostly Cloudy,30,2013-05-04 01:56:00
10:56 PM,57.9,52.0,81,30.18,10.0,NE,20.7,32.2,N/A,,Overcast,40,2013-05-04 02:56:00
11:56 PM,59.0,53.1,81,30.17,10.0,NNE,19.6,26.5,N/A,,Mostly Cloudy,30,2013-05-04 03:56:00